Find Starlink 5512

NORAD ID: 57256 Int'l Des: 2023-094 Owner: SPXS Country: US Constellation: starlink operational
LEOCIRCULAR

Live-Position

3D-Globus wird geladen...

Über Starlink 5512

Beschreibung wird geladen...

Nächste Überflüge

Passes for default location (London). Set your location on the main map for personalized predictions.

Höhenverlauf

Loading altitude history...

Zweizeiliger Elementsatz

1 57256U 23094AQ 26104.21967896 -.00000072 00000-0 69197-5 0 9991
2 57256 43.0018 179.2557 0001546 267.5299 92.5376 15.27574560152670
Epoch: 14. Apr. 2026 • Age: 9 hours

Aktueller Status

Höhe 482.4 km
Geschwindigkeit 7.63 km/s
Subsatellitenpunkt 10.43°N, 124.24°E
Startdatum 7. Juli 2023
Alter 2.7 years
Typ internet

Technische Details

Klassifizierung Payload
Masse 305.00 kg
Trockenmasse 290.00 kg
Gesamtmasse 305.00 kg
Länge 0.20 m
Durchmesser 2.80 m
Spannweite 9.00 m
Form Box + pan
Hersteller SPXS
Bus-Typ Starlink
Phasenstatus In Orbit
Besitzer/Staat SPXS/US

Most Searched